Find Starlink 30889

NORAD ID: 58368 Int'l Des: 2023-177 Owner: SPXS Country: US Constellation: starlink operational
LEOCIRCULAR

Current View

Loading 3D Globe...

About Starlink 30889

Starlink 30889 (NORAD 58368) is a starlink constellation satellite (v2 mini) launched Nov 18, 2023 by SPXS of US. It operates in LEO, CIRCULAR orbit with a mass of 730.00 kg.

About Starlink 30889

Description loading...

Upcoming Passes

Passes for default location (London). Set your location on the main map for personalized predictions.

Altitude History

Loading altitude history...

Two-Line Element Set

1 58368U 23177T 26165.71219223 -.00000340 00000-0 -28274-5 0 9994
2 58368 43.0034 162.8525 0001032 276.5057 83.5677 15.27573461143064
Epoch: Jun 14, 2026 • Age: 13 hours

Current Status

Altitude 482.4 km
Velocity 7.63 km/s
Sub-Earth Point 17.27°N, 170.68°W
Launch Date Nov 18, 2023
Age 2.5 years
Type internet

Technical Details

Classification Payload
Mass 730.00 kg
Dry Mass 700.00 kg
Total Mass 730.00 kg
Length 0.30 m
Diameter 4.10 m
Span 29.00 m
Shape Box + pan
Manufacturer SPXS
Bus Type Starlink V2M
Phase Status In Orbit
Owner/State SPXS/US

Most Searched